Time,TemperatureF,DewpointF,PressureIn,WindDirection,WindDirectionDegrees,WindSpeedMPH,WindSpeedGustMPH,Humidity,HourlyPrecipIn,Conditions,Clouds,dailyrainin,SoftwareType,DateUTC
2013-04-24 06:06:00,39.9,34.5,29.85,NW,317,3.7,3.7,81,0.00,,,0.98,VWS V14.01,2013-04-24 10:06:00,
2013-04-24 06:07:00,39.8,38.7,29.86,North,349,4.5,4.5,96,0.00,,,0.00,VWS V14.01,2013-04-24 10:07:00,
2013-04-24 06:08:00,39.8,38.6,29.80,North,8,5.4,7.1,96,0.00,,,0.00,VWS V14.01,2013-04-24 10:08:00,
2013-04-24 06:09:00,39.6,38.5,29.81,NNW,347,4.7,6.3,96,0.00,,,0.00,VWS V14.01,2013-04-24 10:09:00,
2013-04-24 06:10:00,39.6,38.5,29.81,NNE,15,8.7,8.7,96,0.00,,,0.00,VWS V14.01,2013-04-24 10:10:00,
2013-04-24 06:11:00,39.6,38.6,29.80,NNW,334,2.7,8.7,96,0.00,,,0.00,VWS V14.01,2013-04-24 10:11:00,
2013-04-24 06:12:00,39.6,38.6,29.80,North,2,4.5,4.5,96,0.00,,,0.00,VWS V14.01,2013-04-24 10:12:00,
2013-04-24 06:13:00,39.5,38.5,29.82,NNW,344,4.4,4.9,96,0.00,,,0.00,VWS V14.01,2013-04-24 10:13:00,
2013-04-24 06:14:00,39.5,38.3,29.81,NNW,342,8.8,10.4,96,0.00,,,0.00,VWS V14.01,2013-04-24 10:14:00,
2013-04-24 06:15:00,39.3,38.0,29.82,NNW,337,9.0,10.4,95,0.00,,,0.00,VWS V14.01,2013-04-24 10:15:00,
2013-04-24 06:16:00,39.2,37.7,29.81,NNW,340,8.0,9.0,94,0.00,,,0.00,VWS V14.01,2013-04-24 10:16:00,
2013-04-24 06:17:00,39.1,37.5,29.82,NNW,327,7.8,8.0,94,0.00,,,0.00,VWS V14.01,2013-04-24 10:17:00,
2013-04-24 06:18:00,39.0,37.3,29.81,NNW,330,5.9,7.8,94,0.00,,,0.00,VWS V14.01,2013-04-24 10:18:00,
2013-04-24 06:19:00,39.0,37.3,29.82,NNW,337,4.7,5.9,93,0.00,,,0.00,VWS V14.01,2013-04-24 10:19:00,
2013-04-24 06:20:00,38.8,37.0,29.81,North,2,5.6,7.6,93,0.00,,,0.00,VWS V14.01,2013-04-24 10:20:00,
2013-04-24 06:21:00,38.9,37.1,29.81,NNW,335,5.2,6.6,93,0.00,,,0.00,VWS V14.01,2013-04-24 10:21:00,
2013-04-24 06:22:00,38.8,36.9,29.82,NNW,347,6.4,6.4,93,0.00,,,0.00,VWS V14.01,2013-04-24 10:22:00,
2013-04-24 06:23:00,38.8,36.9,29.80,North,4,6.1,6.4,93,0.00,,,0.00,VWS V14.01,2013-04-24 10:23:00,
2013-04-24 06:24:00,38.8,36.9,29.81,North,5,4.9,8.3,93,0.00,,,0.00,VWS V14.01,2013-04-24 10:24:00,
2013-04-24 06:25:00,38.8,36.9,29.81,North,11,5.1,5.1,93,0.00,,,0.00,VWS V14.01,2013-04-24 10:25:00,
2013-04-24 06:26:00,38.7,36.9,29.80,NW,321,5.2,5.2,93,0.00,,,0.00,VWS V14.01,2013-04-24 10:26:00,
2013-04-24 06:27:00,38.5,36.7,29.81,NW,317,6.6,6.6,93,0.00,,,0.00,VWS V14.01,2013-04-24 10:27:00,
2013-04-24 06:28:00,38.6,36.8,29.80,North,4,9.3,9.3,93,0.00,,,0.00,VWS V14.01,2013-04-24 10:28:00,
2013-04-24 06:29:00,38.6,36.9,29.80,NE,34,4.7,9.3,93,0.00,,,0.00,VWS V14.01,2013-04-24 10:29:00,
2013-04-24 06:30:00,38.6,36.9,29.80,NE,34,4.7,9.3,93,0.00,,,0.00,VWS V14.01,2013-04-24 10:30:00,
2013-04-24 06:31:00,38.6,36.9,29.80,NE,34,4.7,9.3,93,0.00,,,0.00,VWS V14.01,2013-04-24 10:31:00,
2013-04-24 06:32:00,38.3,36.5,29.81,NNW,331,9.7,9.7,93,0.00,,,0.00,VWS V14.01,2013-04-24 10:32:00,
2013-04-24 06:33:00,38.4,36.5,29.81,NE,43,6.6,12.4,93,0.00,,,0.00,VWS V14.01,2013-04-24 10:33:00,
2013-04-24 06:34:00,38.3,36.6,29.82,NNE,14,4.7,6.6,93,0.00,,,0.00,VWS V14.01,2013-04-24 10:34:00,
2013-04-24 06:35:00,38.2,36.4,29.82,North,351,4.7,7.8,93,0.00,,,0.00,VWS V14.01,2013-04-24 10:35:00,
2013-04-24 06:36:00,38.2,36.4,29.82,North,351,4.7,7.8,93,0.00,,,0.00,VWS V14.01,2013-04-24 10:36:00,
2013-04-24 06:37:00,38.1,36.3,29.82,North,349,8.5,8.5,93,0.00,,,0.00,VWS V14.01,2013-04-24 10:37:00,
2013-04-24 06:38:00,38.2,36.4,29.82,North,350,6.1,8.5,93,0.00,,,0.00,VWS V14.01,2013-04-24 10:38:00,
2013-04-24 06:39:00,38.2,36.4,29.86,NW,313,3.5,6.1,93,0.00,,,0.00,VWS V14.01,2013-04-24 10:39:00,
2013-04-24 06:40:00,38.2,36.3,29.83,NNW,340,7.5,7.5,93,0.00,,,0.00,VWS V14.01,2013-04-24 10:40:00,
2013-04-24 06:41:00,38.2,36.4,29.83,NNE,12,4.9,7.5,93,0.00,,,0.00,VWS V14.01,2013-04-24 10:41:00,
2013-04-24 06:42:00,38.3,36.7,29.83,NW,325,6.1,6.1,94,0.00,,,0.00,VWS V14.01,2013-04-24 10:42:00,
2013-04-24 06:43:00,38.2,36.5,29.83,NNE,17,5.9,6.3,94,0.00,,,0.00,VWS V14.01,2013-04-24 10:43:00,
2013-04-24 06:44:00,38.1,36.5,29.83,NNW,332,5.6,5.9,94,0.00,,,0.00,VWS V14.01,2013-04-24 10:44:00,
2013-04-24 06:45:00,38.1,36.5,29.83,NW,311,4.7,6.8,94,0.00,,,0.00,VWS V14.01,2013-04-24 10:45:00,
2013-04-24 06:46:00,38.1,36.4,29.84,NW,315,4.7,5.1,93,0.00,,,0.00,VWS V14.01,2013-04-24 10:46:00,
2013-04-24 06:47:00,38.3,36.7,29.87,North,4,4.4,5.7,94,0.00,,,0.00,VWS V14.01,2013-04-24 10:47:00,
2013-04-24 06:48:00,38.2,36.7,29.84,North,349,5.9,5.9,94,0.00,,,0.00,VWS V14.01,2013-04-24 10:48:00,
2013-04-24 06:49:00,38.2,36.6,29.83,NNE,12,3.9,5.9,94,0.00,,,0.00,VWS V14.01,2013-04-24 10:49:00,
2013-04-24 06:50:00,38.1,36.6,29.86,NNW,333,4.0,4.0,94,0.00,,,0.00,VWS V14.01,2013-04-24 10:50:00,
2013-04-24 06:51:00,38.1,36.6,29.83,North,5,3.5,4.2,94,0.00,,,0.00,VWS V14.01,2013-04-24 10:51:00,
2013-04-24 06:52:00,38.2,36.8,29.83,NNE,32,7.3,7.3,94,0.00,,,0.00,VWS V14.01,2013-04-24 10:52:00,
2013-04-24 06:53:00,38.1,36.6,29.82,NNW,340,2.2,7.3,95,0.00,,,0.00,VWS V14.01,2013-04-24 10:53:00,
2013-04-24 06:54:00,38.1,36.7,29.82,NW,317,4.0,6.3,95,0.00,,,0.00,VWS V14.01,2013-04-24 10:54:00,
2013-04-24 06:55:00,38.1,36.8,29.83,NNW,341,3.5,5.9,95,0.00,,,0.00,VWS V14.01,2013-04-24 10:55:00,
2013-04-24 06:56:00,38.1,36.8,29.82,NW,315,2.0,3.5,95,0.00,,,0.00,VWS V14.01,2013-04-24 10:56:00,
2013-04-24 06:57:00,38.1,36.8,29.82,North,351,5.6,5.6,95,0.00,,,0.00,VWS V14.01,2013-04-24 10:57:00,
2013-04-24 06:58:00,38.0,36.6,29.83,ENE,68,5.2,6.3,95,0.00,,,0.00,VWS V14.01,2013-04-24 10:58:00,
2013-04-24 06:59:00,38.1,36.7,29.83,NNW,333,7.1,7.1,95,0.00,,,0.00,VWS V14.01,2013-04-24 10:59:00,
2013-04-24 07:00:00,38.0,36.7,29.83,NNW,342,3.9,9.7,95,0.00,,,0.00,VWS V14.01,2013-04-24 11:00:00,
2013-04-24 07:01:00,37.9,36.7,29.83,WNW,285,6.3,6.3,95,0.00,,,0.00,VWS V14.01,2013-04-24 11:01:00,
2013-04-24 07:02:00,38.0,36.9,29.83,NE,37,6.9,6.9,96,0.00,,,0.00,VWS V14.01,2013-04-24 11:02:00,
2013-04-24 07:03:00,38.0,36.9,29.84,North,1,3.9,6.9,96,0.00,,,0.00,VWS V14.01,2013-04-24 11:03:00,
2013-04-24 07:04:00,37.9,36.8,29.83,North,4,9.3,9.3,96,0.00,,,0.00,VWS V14.01,2013-04-24 11:04:00,
2013-04-24 07:05:00,37.9,36.8,29.83,NNW,348,6.8,9.3,95,0.00,,,0.00,VWS V14.01,2013-04-24 11:05:00,
2013-04-24 07:06:00,38.0,36.8,29.83,North,349,8.3,8.3,95,0.00,,,0.00,VWS V14.01,2013-04-24 11:06:00,
2013-04-24 07:07:00,38.1,36.9,29.83,NE,43,5.9,8.3,95,0.00,,,0.00,VWS V14.01,2013-04-24 11:07:00,
2013-04-24 07:08:00,38.0,36.8,29.83,NE,36,2.8,6.1,95,0.00,,,0.00,VWS V14.01,2013-04-24 11:08:00,
2013-04-24 07:09:00,38.0,36.9,29.88,NNW,343,6.1,6.1,96,0.00,,,0.00,VWS V14.01,2013-04-24 11:09:00,
2013-04-24 07:10:00,37.9,36.8,29.84,NNE,28,4.5,6.1,96,0.00,,,0.00,VWS V14.01,2013-04-24 11:10:00,
2013-04-24 07:11:00,37.8,36.3,29.83,NNE,25,7.6,7.8,94,0.00,,,0.00,VWS V14.01,2013-04-24 11:11:00,
2013-04-24 07:12:00,37.7,35.9,29.84,NNW,342,3.9,7.6,93,0.00,,,0.00,VWS V14.01,2013-04-24 11:12:00,
2013-04-24 07:13:00,37.6,35.8,29.84,NNW,332,3.9,3.9,93,0.00,,,0.00,VWS V14.01,2013-04-24 11:13:00,
2013-04-24 07:14:00,37.6,35.5,29.83,NE,54,9.2,9.2,92,0.00,,,0.00,VWS V14.01,2013-04-24 11:14:00,
2013-04-24 07:15:00,37.7,35.6,29.84,NE,34,6.4,9.2,92,0.00,,,0.00,VWS V14.01,2013-04-24 11:15:00,
2013-04-24 07:16:00,37.5,35.4,29.84,North,11,5.4,6.4,92,0.00,,,0.00,VWS V14.01,2013-04-24 11:16:00,
2013-04-24 07:17:00,37.5,34.1,29.84,NNW,342,6.6,6.6,87,0.00,,,0.00,VWS V14.01,2013-04-24 11:17:00,
2013-04-24 07:18:00,37.4,35.1,29.84,North,11,6.1,6.6,91,0.00,,,0.00,VWS V14.01,2013-04-24 11:18:00,
2013-04-24 07:19:00,37.5,35.1,29.84,NNE,29,5.4,6.4,91,0.00,,,0.00,VWS V14.01,2013-04-24 11:19:00,
2013-04-24 07:20:00,37.5,35.3,29.84,NNW,341,6.6,8.7,92,0.00,,,0.00,VWS V14.01,2013-04-24 11:20:00,
2013-04-24 07:21:00,37.4,35.3,29.85,NNE,32,4.5,6.6,92,0.00,,,0.00,VWS V14.01,2013-04-24 11:21:00,
2013-04-24 07:22:00,37.4,35.3,29.84,NW,322,5.4,8.8,92,0.00,,,0.00,VWS V14.01,2013-04-24 11:22:00,
2013-04-24 07:23:00,37.4,35.3,29.85,NE,42,7.6,8.7,92,0.00,,,0.00,VWS V14.01,2013-04-24 11:23:00,
2013-04-24 07:24:00,37.4,35.3,29.85,NE,36,6.9,7.6,92,0.00,,,0.00,VWS V14.01,2013-04-24 11:24:00,
2013-04-24 07:25:00,37.4,35.3,29.83,NNW,338,5.4,6.4,92,0.00,,,0.00,VWS V14.01,2013-04-24 11:25:00,
2013-04-24 07:26:00,37.4,35.5,29.83,North,3,4.5,5.4,93,0.00,,,0.00,VWS V14.01,2013-04-24 11:26:00,
2013-04-24 07:27:00,37.3,35.6,29.84,West,280,5.2,5.2,93,0.00,,,0.00,VWS V14.01,2013-04-24 11:27:00,
2013-04-24 07:28:00,37.3,35.5,29.83,NNE,18,6.6,6.6,93,0.00,,,0.00,VWS V14.01,2013-04-24 11:28:00,
2013-04-24 07:29:00,37.3,35.5,29.83,NNE,18,6.6,6.6,93,0.00,,,0.00,VWS V14.01,2013-04-24 11:29:00,
2013-04-24 07:30:00,37.3,35.8,29.83,NE,36,4.5,7.5,94,0.00,,,0.00,VWS V14.01,2013-04-24 11:30:00,
2013-04-24 07:31:00,37.2,35.8,29.87,NNE,19,4.5,4.5,95,0.00,,,0.00,VWS V14.01,2013-04-24 11:31:00,
2013-04-24 07:32:00,37.3,35.9,29.84,NNW,344,4.5,4.5,95,0.00,,,0.00,VWS V14.01,2013-04-24 11:32:00,
2013-04-24 07:33:00,37.4,36.1,29.85,NNW,348,3.7,4.9,95,0.00,,,0.00,VWS V14.01,2013-04-24 11:33:00,
2013-04-24 07:34:00,37.2,35.9,29.85,NNW,336,5.7,7.3,95,0.00,,,0.00,VWS V14.01,2013-04-24 11:34:00,
2013-04-24 07:35:00,37.1,35.9,29.84,West,269,4.2,5.7,95,0.00,,,0.00,VWS V14.01,2013-04-24 11:35:00,
2013-04-24 07:36:00,37.2,36.0,29.84,NNW,338,6.4,8.0,95,0.00,,,0.00,VWS V14.01,2013-04-24 11:36:00,
2013-04-24 07:37:00,37.0,35.9,29.84,NE,40,7.8,7.8,96,0.00,,,0.00,VWS V14.01,2013-04-24 11:37:00,
2013-04-24 07:38:00,37.0,36.0,29.83,NW,326,3.2,7.8,96,0.00,,,0.00,VWS V14.01,2013-04-24 11:38:00,
2013-04-24 07:39:00,36.7,35.7,29.84,NW,309,8.1,8.1,96,0.00,,,0.00,VWS V14.01,2013-04-24 11:39:00,
2013-04-24 07:40:00,36.7,35.8,29.84,NNW,344,8.3,8.3,96,0.00,,,0.00,VWS V14.01,2013-04-24 11:40:00,
2013-04-24 07:41:00,36.6,35.7,29.83,NNE,12,5.6,9.5,96,0.00,,,0.00,VWS V14.01,2013-04-24 11:41:00,
2013-04-24 07:42:00,36.5,35.7,29.85,NNW,338,11.9,11.9,97,0.00,,,0.00,VWS V14.01,2013-04-24 11:42:00,
2013-04-24 07:43:00,36.5,35.7,29.85,NNW,333,5.4,11.9,97,0.00,,,0.00,VWS V14.01,2013-04-24 11:43:00,
2013-04-24 07:44:00,36.4,35.6,29.84,North,349,10.4,10.4,97,0.00,,,0.00,VWS V14.01,2013-04-24 11:44:00,
2013-04-24 07:45:00,36.5,35.7,29.84,NW,314,9.5,10.4,97,0.00,,,0.00,VWS V14.01,2013-04-24 11:45:00,
2013-04-24 07:46:00,36.4,35.7,29.85,North,4,6.8,10.4,97,0.00,,,0.00,VWS V14.01,2013-04-24 11:46:00,
2013-04-24 07:47:00,36.5,35.8,29.85,WNW,301,6.1,8.3,97,0.00,,,0.00,VWS V14.01,2013-04-24 11:47:00,
2013-04-24 07:48:00,36.3,35.7,29.85,NNE,30,7.5,7.5,98,0.00,,,0.00,VWS V14.01,2013-04-24 11:48:00,
2013-04-24 07:49:00,36.4,35.7,29.85,North,11,6.9,8.3,97,0.00,,,0.00,VWS V14.01,2013-04-24 11:49:00,
2013-04-24 07:50:00,36.4,35.7,29.85,NW,326,5.1,6.9,97,0.00,,,0.00,VWS V14.01,2013-04-24 11:50:00,
2013-04-24 07:51:00,36.3,34.9,29.85,NNE,17,5.6,5.6,95,0.00,,,0.00,VWS V14.01,2013-04-24 11:51:00,
2013-04-24 07:52:00,36.2,35.5,29.85,North,3,5.4,5.9,97,0.00,,,0.00,VWS V14.01,2013-04-24 11:52:00,
2013-04-24 07:53:00,36.4,35.7,29.85,NNE,28,5.6,5.9,97,0.00,,,0.00,VWS V14.01,2013-04-24 11:53:00,
2013-04-24 07:54:00,36.4,35.8,29.85,NW,323,1.8,5.7,97,0.00,,,0.00,VWS V14.01,2013-04-24 11:54:00,
2013-04-24 07:55:00,36.4,35.8,29.84,NNE,28,5.7,5.7,98,0.00,,,0.00,VWS V14.01,2013-04-24 11:55:00,
2013-04-24 07:56:00,36.5,35.9,29.84,North,350,3.2,5.1,98,0.00,,,0.00,VWS V14.01,2013-04-24 11:56:00,
2013-04-24 07:57:00,36.6,36.0,29.84,North,352,2.7,5.1,98,0.00,,,0.00,VWS V14.01,2013-04-24 11:57:00,
2013-04-24 07:58:00,36.3,35.8,29.85,NNW,342,5.9,5.9,98,0.00,,,0.00,VWS V14.01,2013-04-24 11:58:00,
2013-04-24 07:59:00,36.5,35.9,29.84,NNE,21,6.4,6.4,98,0.00,,,0.00,VWS V14.01,2013-04-24 11:59:00,
2013-04-24 08:00:00,36.4,35.8,29.84,NE,36,7.1,7.1,98,0.00,,,0.98,VWS V14.01,2013-04-24 12:00:00,
2013-04-24 08:02:00,36.4,35.9,29.84,North,9,4.5,5.6,98,0.00,,,0.00,VWS V14.01,2013-04-24 12:02:00,
2013-04-24 08:05:00,36.1,35.4,29.85,North,4,11.2,11.2,97,0.00,,,0.00,VWS V14.01,2013-04-24 12:05:00,
2013-04-24 08:06:00,36.0,35.3,29.85,North,7,7.5,11.2,97,0.00,,,0.00,VWS V14.01,2013-04-24 12:06:00,
2013-04-24 08:07:00,36.0,35.2,29.85,NNE,28,4.7,13.3,97,0.00,,,0.00,VWS V14.01,2013-04-24 12:07:00,
2013-04-24 08:12:00,35.9,35.1,29.85,NNW,346,6.8,13.3,97,0.00,,,0.00,VWS V14.01,2013-04-24 12:12:00,
2013-04-24 08:13:00,36.1,35.4,29.86,North,4,9.9,13.3,97,0.00,,,0.00,VWS V14.01,2013-04-24 12:13:00,
2013-04-24 08:14:00,35.9,35.2,29.85,NNW,329,5.6,13.3,97,0.00,,,0.00,VWS V14.01,2013-04-24 12:14:00,
2013-04-24 08:17:00,36.0,35.3,29.85,NNW,346,6.9,13.3,97,0.00,,,0.00,VWS V14.01,2013-04-24 12:17:00,
2013-04-24 08:18:00,35.9,35.3,29.86,NNE,15,5.2,13.3,98,0.00,,,0.98,VWS V14.01,2013-04-24 12:18:00,
2013-04-24 08:19:00,36.1,35.5,29.85,WNW,301,7.1,13.3,97,0.00,,,0.00,VWS V14.01,2013-04-24 12:19:00,
2013-04-24 08:21:00,36.1,35.4,29.85,North,5,7.5,13.3,97,0.00,,,0.00,VWS V14.01,2013-04-24 12:21:00,
2013-04-24 08:23:00,36.0,35.3,29.85,North,350,3.0,13.3,97,0.00,,,0.00,VWS V14.01,2013-04-24 12:23:00,
2013-04-24 08:26:00,36.1,35.2,29.84,NNW,336,5.7,13.3,96,0.00,,,0.00,VWS V14.01,2013-04-24 12:26:00,
2013-04-24 08:28:00,36.2,35.3,29.85,North,7,6.9,13.3,96,0.00,,,0.00,VWS V14.01,2013-04-24 12:28:00,
2013-04-24 08:30:00,36.3,35.4,29.85,NNE,14,6.3,13.3,96,0.00,,,0.00,VWS V14.01,2013-04-24 12:30:00,
2013-04-24 08:33:00,35.9,34.9,29.86,North,4,4.7,13.3,96,0.00,,,0.00,VWS V14.01,2013-04-24 12:33:00,
2013-04-24 08:34:00,35.9,35.0,29.86,NNW,333,6.6,13.3,96,0.00,,,0.00,VWS V14.01,2013-04-24 12:34:00,
2013-04-24 08:35:00,35.7,34.6,29.85,NNW,343,6.4,13.3,96,0.00,,,0.00,VWS V14.01,2013-04-24 12:35:00,
2013-04-24 08:37:00,35.6,34.6,29.85,NE,43,8.0,13.3,96,0.00,,,0.00,VWS V14.01,2013-04-24 12:37:00,
2013-04-24 08:39:00,35.6,34.7,29.85,NNW,340,6.6,13.3,96,0.00,,,0.00,VWS V14.01,2013-04-24 12:39:00,
2013-04-24 08:41:00,35.6,34.7,29.85,NNE,26,6.1,13.3,96,0.00,,,0.00,VWS V14.01,2013-04-24 12:41:00,
2013-04-24 08:42:00,35.5,34.6,29.84,NNW,336,4.0,13.3,96,0.00,,,0.00,VWS V14.01,2013-04-24 12:42:00,
2013-04-24 08:43:00,35.7,34.8,29.85,NNW,329,4.7,13.3,97,0.00,,,0.00,VWS V14.01,2013-04-24 12:43:00,
2013-04-24 08:45:00,35.8,35.1,29.85,North,351,3.4,13.3,97,0.00,,,0.00,VWS V14.01,2013-04-24 12:45:00,
2013-04-24 08:47:00,35.6,34.8,29.86,NE,35,3.0,13.3,97,0.00,,,0.00,VWS V14.01,2013-04-24 12:47:00,
2013-04-24 08:51:00,35.5,34.8,29.86,North,352,5.2,13.3,97,0.00,,,0.00,VWS V14.01,2013-04-24 12:51:00,
2013-04-24 08:52:00,35.6,34.9,29.86,NNW,328,1.1,13.3,97,0.00,,,0.00,VWS V14.01,2013-04-24 12:52:00,
2013-04-24 08:53:00,35.7,34.9,29.85,NNE,20,3.4,13.3,97,0.00,,,0.00,VWS V14.01,2013-04-24 12:53:00,
2013-04-24 08:55:00,36.0,35.2,29.85,North,2,4.7,13.3,97,0.00,,,0.00,VWS V14.01,2013-04-24 12:55:00,
2013-04-24 08:56:00,35.7,34.9,29.85,NNW,333,6.1,13.3,97,0.00,,,0.00,VWS V14.01,2013-04-24 12:56:00,
2013-04-24 08:58:00,35.7,34.8,29.85,NNW,335,5.2,13.3,96,0.00,,,0.00,VWS V14.01,2013-04-24 12:58:00,
2013-04-24 08:59:00,35.7,34.8,29.85,North,5,3.9,13.3,97,0.00,,,0.00,VWS V14.01,2013-04-24 12:59:00,
2013-04-24 09:00:00,35.7,34.8,29.85,North,5,3.9,13.3,97,0.00,,,0.00,VWS V14.01,2013-04-24 13:00:00,
2013-04-24 09:01:00,35.7,34.9,29.85,NE,51,5.1,5.1,97,0.00,,,0.00,VWS V14.01,2013-04-24 13:01:00,
2013-04-24 09:03:00,35.7,34.8,29.86,NNW,337,4.0,6.1,97,0.00,,,0.00,VWS V14.01,2013-04-24 13:03:00,
2013-04-24 09:04:00,35.7,34.8,29.85,NW,321,3.9,6.1,97,0.00,,,0.00,VWS V14.01,2013-04-24 13:04:00,
2013-04-24 09:06:00,35.7,34.7,29.86,North,350,6.1,8.3,96,0.00,,,0.00,VWS V14.01,2013-04-24 13:06:00,
2013-04-24 09:07:00,35.7,34.7,29.86,NNW,332,5.7,8.3,96,0.00,,,0.00,VWS V14.01,2013-04-24 13:07:00,
2013-04-24 09:09:00,35.6,34.7,29.86,North,0,7.6,8.3,96,0.00,,,0.00,VWS V14.01,2013-04-24 13:09:00,
2013-04-24 09:10:00,35.8,34.8,29.85,North,0,5.9,8.3,96,0.00,,,0.00,VWS V14.01,2013-04-24 13:10:00,
2013-04-24 09:12:00,35.7,34.9,29.86,NNW,348,5.1,8.3,97,0.00,,,0.00,VWS V14.01,2013-04-24 13:12:00,
2013-04-24 09:13:00,35.8,35.0,29.86,NNE,17,6.6,8.3,97,0.00,,,0.00,VWS V14.01,2013-04-24 13:13:00,
2013-04-24 09:14:00,35.7,34.8,29.86,NE,44,5.7,8.3,97,0.00,,,0.00,VWS V14.01,2013-04-24 13:14:00,
2013-04-24 09:15:00,35.7,34.8,29.86,NNE,21,6.9,8.3,97,0.00,,,0.00,VWS V14.01,2013-04-24 13:15:00,
2013-04-24 09:17:00,35.7,34.9,29.86,NW,321,5.1,9.0,97,0.00,,,0.00,VWS V14.01,2013-04-24 13:17:00,
2013-04-24 09:19:00,35.8,34.9,29.87,NNW,338,4.0,9.0,97,0.00,,,0.00,VWS V14.01,2013-04-24 13:19:00,
2013-04-24 09:20:00,35.7,34.9,29.86,NE,42,5.6,9.0,97,0.00,,,0.00,VWS V14.01,2013-04-24 13:20:00,
2013-04-24 09:21:00,35.6,34.7,29.86,NW,318,5.6,9.0,96,0.00,,,0.00,VWS V14.01,2013-04-24 13:21:00,
2013-04-24 09:23:00,35.6,34.7,29.87,WNW,285,5.4,9.0,96,0.00,,,0.00,VWS V14.01,2013-04-24 13:23:00,
2013-04-24 09:24:00,35.5,34.5,29.87,NNW,335,7.3,9.0,96,0.00,,,0.00,VWS V14.01,2013-04-24 13:24:00,
2013-04-24 09:25:00,35.5,33.0,29.87,NW,315,1.1,9.0,91,0.00,,,0.00,VWS V14.01,2013-04-24 13:25:00,
2013-04-24 09:26:00,35.5,34.5,29.87,NE,40,5.9,9.0,96,0.00,,,0.98,VWS V14.01,2013-04-24 13:26:00,
2013-04-24 09:27:00,35.4,34.4,29.87,North,10,7.3,9.0,96,0.00,,,0.00,VWS V14.01,2013-04-24 13:27:00,
2013-04-24 09:29:00,35.4,34.2,29.87,North,360,4.2,9.0,95,0.00,,,0.00,VWS V14.01,2013-04-24 13:29:00,
2013-04-24 09:31:00,35.6,34.4,29.87,NNW,347,6.9,9.0,95,0.00,,,0.00,VWS V14.01,2013-04-24 13:31:00,
2013-04-24 09:32:00,35.4,34.0,29.86,NNW,341,2.2,9.0,95,0.00,,,0.00,VWS V14.01,2013-04-24 13:32:00,
2013-04-24 09:33:00,35.4,34.0,29.87,North,8,2.5,9.0,95,0.00,,,0.00,VWS V14.01,2013-04-24 13:33:00,
2013-04-24 09:34:00,35.4,34.0,29.87,NNW,332,3.2,9.0,95,0.00,,,0.00,VWS V14.01,2013-04-24 13:34:00,
2013-04-24 09:36:00,35.4,34.0,29.87,NW,321,2.8,9.0,95,0.00,,,0.00,VWS V14.01,2013-04-24 13:36:00,
2013-04-24 09:37:00,35.4,34.0,29.86,NNW,337,4.9,9.0,94,0.00,,,0.00,VWS V14.01,2013-04-24 13:37:00,
2013-04-24 09:38:00,35.4,33.9,29.86,NNE,30,3.9,9.0,94,0.00,,,0.00,VWS V14.01,2013-04-24 13:38:00,
2013-04-24 09:41:00,35.3,33.9,29.85,NNE,18,5.4,9.0,95,0.00,,,0.98,VWS V14.01,2013-04-24 13:41:00,
2013-04-24 09:42:00,35.3,33.9,29.85,NNE,18,5.4,9.0,95,0.04,,,0.04,VWS V14.01,2013-04-24 13:42:00,
2013-04-24 09:43:00,35.5,34.1,29.85,NE,40,5.1,9.0,95,0.04,,,0.04,VWS V14.01,2013-04-24 13:43:00,
2013-04-24 09:45:00,35.7,34.3,29.85,North,7,3.4,9.0,95,0.04,,,0.04,VWS V14.01,2013-04-24 13:45:00,
2013-04-24 09:46:00,35.6,34.4,29.85,NNE,29,7.8,9.0,95,0.04,,,0.04,VWS V14.01,2013-04-24 13:46:00,
2013-04-24 09:47:00,35.7,34.4,29.85,NNW,348,4.0,9.0,95,0.04,,,0.04,VWS V14.01,2013-04-24 13:47:00,
2013-04-24 09:49:00,35.8,34.8,29.86,North,9,0.0,9.0,96,0.04,,,0.04,VWS V14.01,2013-04-24 13:49:00,
2013-04-24 09:50:00,35.9,34.9,29.85,NNW,341,4.9,9.0,96,0.04,,,0.04,VWS V14.01,2013-04-24 13:50:00,
2013-04-24 09:51:00,35.4,34.2,29.85,NNE,30,8.7,9.0,95,0.04,,,0.04,VWS V14.01,2013-04-24 13:51:00,
2013-04-24 09:52:00,35.5,34.2,29.85,NNW,336,5.1,9.3,95,0.04,,,0.04,VWS V14.01,2013-04-24 13:52:00,
2013-04-24 09:53:00,35.6,34.3,29.90,North,8,3.9,9.3,95,0.04,,,0.04,VWS V14.01,2013-04-24 13:53:00,
2013-04-24 09:55:00,35.8,34.7,29.85,NE,42,2.8,9.3,95,0.04,,,0.04,VWS V14.01,2013-04-24 13:55:00,
2013-04-24 09:57:00,35.4,34.2,29.85,NE,37,4.7,9.3,95,0.04,,,0.04,VWS V14.01,2013-04-24 13:57:00,
2013-04-24 09:58:00,35.4,34.1,29.85,NNE,24,7.3,9.3,95,0.04,,,0.04,VWS V14.01,2013-04-24 13:58:00,
2013-04-24 09:59:00,35.5,34.1,29.85,North,0,8.3,9.3,95,0.04,,,0.04,VWS V14.01,2013-04-24 13:59:00,
2013-04-24 10:00:00,35.6,34.3,29.85,NE,41,4.0,9.3,95,0.04,,,0.04,VWS V14.01,2013-04-24 14:00:00,
2013-04-24 10:01:00,35.5,34.4,29.86,NNW,339,4.2,9.3,95,0.04,,,0.04,VWS V14.01,2013-04-24 14:01:00,
2013-04-24 10:02:00,35.5,34.2,29.86,NNE,20,3.5,6.8,95,0.04,,,0.04,VWS V14.01,2013-04-24 14:02:00,
2013-04-24 10:03:00,35.6,34.2,29.86,WNW,292,6.9,6.9,95,0.04,,,0.04,VWS V14.01,2013-04-24 14:03:00,
2013-04-24 10:04:00,35.6,34.2,29.86,NE,39,5.7,6.9,95,0.04,,,0.04,VWS V14.01,2013-04-24 14:04:00,
2013-04-24 10:05:00,35.5,34.0,29.86,NE,49,1.5,5.7,95,0.04,,,0.04,VWS V14.01,2013-04-24 14:05:00,
2013-04-24 10:06:00,35.7,34.3,29.86,North,8,3.5,8.7,95,0.04,,,0.04,VWS V14.01,2013-04-24 14:06:00,
2013-04-24 10:07:00,35.5,34.2,29.86,NE,46,1.5,4.4,95,0.04,,,0.04,VWS V14.01,2013-04-24 14:07:00,
2013-04-24 10:08:00,35.5,34.2,29.85,NNW,336,9.9,9.9,95,0.04,,,0.04,VWS V14.01,2013-04-24 14:08:00,
2013-04-24 10:09:00,35.5,34.1,29.86,North,350,5.7,9.9,95,0.04,,,0.04,VWS V14.01,2013-04-24 14:09:00,
2013-04-24 10:10:00,35.6,34.3,29.86,North,6,5.4,6.3,95,0.04,,,0.04,VWS V14.01,2013-04-24 14:10:00,
2013-04-24 10:11:00,35.4,34.2,29.86,NNE,16,5.4,5.4,95,0.04,,,0.04,VWS V14.01,2013-04-24 14:11:00,
2013-04-24 10:12:00,35.4,34.1,29.86,NNW,338,4.0,5.4,95,0.04,,,0.04,VWS V14.01,2013-04-24 14:12:00,
2013-04-24 10:13:00,35.3,34.1,29.86,NNW,343,6.8,6.8,95,0.04,,,0.04,VWS V14.01,2013-04-24 14:13:00,
2013-04-24 10:14:00,35.2,34.0,29.86,NNW,329,4.5,6.8,95,0.04,,,0.04,VWS V14.01,2013-04-24 14:14:00,
2013-04-24 10:15:00,35.3,34.1,29.87,NNW,343,3.5,4.5,95,0.04,,,0.04,VWS V14.01,2013-04-24 14:15:00,
2013-04-24 10:16:00,35.3,34.1,29.86,NNW,331,6.1,6.1,95,0.04,,,0.04,VWS V14.01,2013-04-24 14:16:00,
2013-04-24 10:17:00,35.2,34.1,29.85,NNW,340,4.7,4.7,96,0.04,,,0.04,VWS V14.01,2013-04-24 14:17:00,
2013-04-24 10:18:00,35.4,34.4,29.86,NNW,346,2.7,3.7,96,0.04,,,0.04,VWS V14.01,2013-04-24 14:18:00,
2013-04-24 10:19:00,35.4,34.5,29.85,NNW,338,4.9,4.9,96,0.04,,,0.04,VWS V14.01,2013-04-24 14:19:00,
2013-04-24 10:20:00,35.2,34.0,29.85,NE,43,4.9,5.4,95,0.04,,,0.04,VWS V14.01,2013-04-24 14:20:00,
2013-04-24 10:21:00,35.1,34.1,29.86,North,0,4.0,4.9,96,0.04,,,0.04,VWS V14.01,2013-04-24 14:21:00,
2013-04-24 10:22:00,35.2,34.4,29.86,NNW,342,2.0,4.0,97,0.04,,,0.04,VWS V14.01,2013-04-24 14:22:00,
2013-04-24 10:23:00,35.1,34.3,29.86,NW,311,7.5,7.5,97,0.04,,,0.04,VWS V14.01,2013-04-24 14:23:00,
2013-04-24 10:24:00,35.1,34.3,29.86,North,8,7.8,7.8,97,0.04,,,0.04,VWS V14.01,2013-04-24 14:24:00,
2013-04-24 10:25:00,35.2,34.4,29.86,NNW,342,4.2,7.8,97,0.04,,,0.04,VWS V14.01,2013-04-24 14:25:00,
2013-04-24 10:26:00,35.2,34.5,29.86,NNW,327,7.6,7.6,97,0.04,,,0.04,VWS V14.01,2013-04-24 14:26:00,
2013-04-24 10:27:00,35.2,34.5,29.86,North,352,5.1,7.6,97,0.04,,,0.04,VWS V14.01,2013-04-24 14:27:00,
2013-04-24 10:28:00,35.1,34.4,29.86,NNW,338,4.5,7.5,97,0.04,,,0.04,VWS V14.01,2013-04-24 14:28:00,
2013-04-24 10:29:00,35.0,34.4,29.86,North,1,2.8,7.5,98,0.04,,,0.04,VWS V14.01,2013-04-24 14:29:00,
2013-04-24 10:30:00,35.2,34.7,29.87,North,352,4.7,4.7,98,0.04,,,0.04,VWS V14.01,2013-04-24 14:30:00,
2013-04-24 10:31:00,35.0,34.6,29.86,NNW,329,5.6,5.6,98,0.04,,,0.04,VWS V14.01,2013-04-24 14:31:00,
2013-04-24 10:32:00,35.0,34.5,29.87,North,350,3.5,5.9,98,0.04,,,0.04,VWS V14.01,2013-04-24 14:32:00,
2013-04-24 10:33:00,35.0,34.6,29.86,North,0,5.4,5.4,98,0.04,,,0.04,VWS V14.01,2013-04-24 14:33:00,
2013-04-24 10:34:00,35.2,34.8,29.86,NNW,334,4.2,5.4,98,0.04,,,0.04,VWS V14.01,2013-04-24 14:34:00,
2013-04-24 10:35:00,35.0,34.6,29.87,NNW,329,5.7,5.7,98,0.04,,,0.04,VWS V14.01,2013-04-24 14:35:00,
2013-04-24 10:36:00,35.1,34.7,29.87,NNW,327,6.6,7.6,98,0.04,,,0.04,VWS V14.01,2013-04-24 14:36:00,
2013-04-24 10:37:00,35.1,34.7,29.87,NW,309,4.0,6.6,99,0.04,,,0.04,VWS V14.01,2013-04-24 14:37:00,
2013-04-24 10:38:00,35.2,34.8,29.87,NE,50,3.7,6.6,99,0.04,,,0.04,VWS V14.01,2013-04-24 14:38:00,
2013-04-24 10:39:00,34.9,34.6,29.86,NNW,342,7.1,7.1,99,0.04,,,0.04,VWS V14.01,2013-04-24 14:39:00,
2013-04-24 10:40:00,35.2,34.8,29.87,NW,321,6.8,8.1,99,0.04,,,0.04,VWS V14.01,2013-04-24 14:40:00,
2013-04-24 10:41:00,35.1,34.8,29.87,NNW,341,8.3,8.3,99,0.04,,,0.04,VWS V14.01,2013-04-24 14:41:00,
2013-04-24 10:42:00,35.0,34.8,29.87,NNW,344,6.1,8.3,99,0.04,,,0.04,VWS V14.01,2013-04-24 14:42:00,
2013-04-24 10:43:00,35.1,34.9,29.86,North,351,8.8,8.8,99,0.04,,,0.04,VWS V14.01,2013-04-24 14:43:00,
2013-04-24 10:44:00,35.1,34.9,29.86,North,351,8.8,8.8,99,0.04,,,0.04,VWS V14.01,2013-04-24 14:44:00,
2013-04-24 10:45:00,34.7,34.5,29.93,NNW,339,6.4,10.4,99,0.04,,,0.04,VWS V14.01,2013-04-24 14:45:00,
2013-04-24 10:46:00,34.9,34.8,29.89,North,10,3.4,6.4,100,0.04,,,0.04,VWS V14.01,2013-04-24 14:46:00,
2013-04-24 10:47:00,34.6,34.5,29.89,NNW,346,8.0,8.1,100,0.04,,,0.04,VWS V14.01,2013-04-24 14:47:00,
2013-04-24 10:48:00,34.7,34.6,29.88,NNW,332,7.6,8.0,100,0.04,,,0.04,VWS V14.01,2013-04-24 14:48:00,
2013-04-24 10:49:00,34.6,34.5,29.88,NNW,340,4.0,7.6,100,0.04,,,0.04,VWS V14.01,2013-04-24 14:49:00,
2013-04-24 10:50:00,34.8,34.7,29.89,North,360,4.4,4.4,100,0.04,,,0.04,VWS V14.01,2013-04-24 14:50:00,
2013-04-24 10:51:00,34.7,34.7,29.89,North,351,4.0,5.4,100,0.04,,,0.04,VWS V14.01,2013-04-24 14:51:00,
2013-04-24 10:52:00,34.8,34.8,29.89,NE,56,1.3,4.5,100,0.04,,,0.04,VWS V14.01,2013-04-24 14:52:00,
2013-04-24 10:53:00,34.7,34.7,29.88,North,351,4.9,6.1,100,0.04,,,0.04,VWS V14.01,2013-04-24 14:53:00,
2013-04-24 10:54:00,34.6,34.6,29.88,NNE,16,3.7,5.6,100,0.04,,,0.04,VWS V14.01,2013-04-24 14:54:00,
2013-04-24 10:55:00,34.9,34.9,29.87,NNE,13,1.0,3.7,100,0.04,,,0.04,VWS V14.01,2013-04-24 14:55:00,
2013-04-24 10:56:00,35.0,35.0,29.87,North,7,3.4,7.5,100,0.04,,,0.04,VWS V14.01,2013-04-24 14:56:00,
2013-04-24 10:57:00,35.1,35.1,29.87,North,2,6.4,6.4,100,0.04,,,0.04,VWS V14.01,2013-04-24 14:57:00,
2013-04-24 10:58:00,35.2,35.2,29.88,North,7,5.9,6.4,100,0.04,,,0.04,VWS V14.01,2013-04-24 14:58:00,
2013-04-24 10:59:00,35.2,35.2,29.88,North,2,0.0,5.9,100,0.04,,,0.04,VWS V14.01,2013-04-24 14:59:00,
2013-04-24 11:00:00,35.5,35.5,29.88,NNW,335,3.9,3.9,100,0.04,,,0.04,VWS V14.01,2013-04-24 15:00:00,
2013-04-24 11:01:00,35.3,35.3,29.89,NNW,330,4.9,6.3,100,0.04,,,0.04,VWS V14.01,2013-04-24 15:01:00,
2013-04-24 11:02:00,34.8,34.8,29.88,NNW,347,4.5,6.3,100,0.00,,,0.04,VWS V14.01,2013-04-24 15:02:00,
2013-04-24 11:03:00,34.8,34.8,29.89,NNW,338,4.4,4.5,100,0.00,,,0.04,VWS V14.01,2013-04-24 15:03:00,
2013-04-24 11:04:00,34.8,34.8,29.89,North,1,2.3,4.4,100,0.00,,,0.04,VWS V14.01,2013-04-24 15:04:00,
2013-04-24 11:05:00,34.8,34.8,29.89,North,349,3.4,5.2,100,0.00,,,0.04,VWS V14.01,2013-04-24 15:05:00,
2013-04-24 11:06:00,35.0,35.0,29.88,North,352,3.4,3.4,100,0.00,,,0.04,VWS V14.01,2013-04-24 15:06:00,
2013-04-24 11:07:00,34.7,34.7,29.89,NW,311,1.6,3.4,100,0.00,,,0.04,VWS V14.01,2013-04-24 15:07:00,
2013-04-24 11:08:00,34.8,34.8,29.89,NNW,330,3.0,4.0,100,0.00,,,0.04,VWS V14.01,2013-04-24 15:08:00,
2013-04-24 11:09:00,35.0,35.0,29.95,NNW,327,0.0,3.0,100,0.00,,,0.04,VWS V14.01,2013-04-24 15:09:00,
2013-04-24 11:10:00,35.0,35.0,29.95,NNW,327,0.0,3.0,100,0.00,,,0.04,VWS V14.01,2013-04-24 15:10:00,
2013-04-24 11:11:00,34.9,34.0,29.89,North,9,2.0,2.0,97,0.00,,,0.04,VWS V14.01,2013-04-24 15:11:00,
2013-04-24 11:12:00,35.0,35.0,29.90,NW,317,5.2,5.2,100,0.00,,,0.04,VWS V14.01,2013-04-24 15:12:00,
2013-04-24 11:13:00,35.0,35.0,29.90,NNW,346,7.5,7.5,100,0.00,,,0.04,VWS V14.01,2013-04-24 15:13:00,
2013-04-24 11:14:00,34.8,34.8,29.89,NNW,341,2.0,2.0,100,0.00,,,0.04,VWS V14.01,2013-04-24 15:14:00,
2013-04-24 11:15:00,34.6,34.6,29.88,NE,53,2.3,2.3,100,0.00,,,0.04,VWS V14.01,2013-04-24 15:15:00,
2013-04-24 11:16:00,34.8,34.8,29.89,NNE,12,1.8,1.8,100,0.00,,,0.04,VWS V14.01,2013-04-24 15:16:00,
2013-04-24 11:17:00,35.0,35.0,29.88,NNW,334,6.1,6.1,100,0.00,,,0.98,VWS V14.01,2013-04-24 15:17:00,
2013-04-24 11:18:00,35.0,35.0,29.88,NNW,334,6.1,6.1,100,0.00,,,0.04,VWS V14.01,2013-04-24 15:18:00,
2013-04-24 11:19:00,35.1,35.1,29.89,NNW,332,5.7,5.7,100,0.00,,,0.04,VWS V14.01,2013-04-24 15:19:00,
2013-04-24 11:20:00,34.6,34.6,29.89,North,350,4.4,8.3,100,0.00,,,0.04,VWS V14.01,2013-04-24 15:20:00,
2013-04-24 11:21:00,34.5,34.5,29.89,NE,43,5.4,5.4,100,0.00,,,0.04,VWS V14.01,2013-04-24 15:21:00,
2013-04-24 11:22:00,34.7,34.7,29.88,North,3,2.2,5.7,100,0.00,,,0.04,VWS V14.01,2013-04-24 15:22:00,
2013-04-24 11:23:00,35.2,35.2,29.89,North,10,1.5,3.2,100,0.00,,,0.04,VWS V14.01,2013-04-24 15:23:00,
2013-04-24 11:24:00,35.0,35.0,29.89,NNE,25,3.5,3.5,100,0.00,,,0.04,VWS V14.01,2013-04-24 15:24:00,
2013-04-24 11:25:00,35.0,35.0,29.89,NNE,12,3.2,3.2,100,0.00,,,0.04,VWS V14.01,2013-04-24 15:25:00,
2013-04-24 11:26:00,34.6,34.6,29.89,NW,311,2.5,2.5,100,0.00,,,0.04,VWS V14.01,2013-04-24 15:26:00,
2013-04-24 11:27:00,34.8,34.8,29.89,NE,42,4.4,4.4,100,0.00,,,0.04,VWS V14.01,2013-04-24 15:27:00,
2013-04-24 11:28:00,34.7,34.7,29.89,NNW,348,5.2,5.2,100,0.00,,,0.04,VWS V14.01,2013-04-24 15:28:00,
2013-04-24 11:29:00,34.7,34.7,29.89,NNW,327,3.7,5.2,100,0.00,,,0.04,VWS V14.01,2013-04-24 15:29:00,
2013-04-24 11:30:00,34.8,34.8,29.89,NNW,336,2.8,3.7,100,0.00,,,0.04,VWS V14.01,2013-04-24 15:30:00,
2013-04-24 11:31:00,35.1,35.1,29.90,NW,322,5.6,6.8,100,0.00,,,0.04,VWS V14.01,2013-04-24 15:31:00,
2013-04-24 11:32:00,34.8,34.8,29.91,NW,321,7.1,7.1,100,0.00,,,0.04,VWS V14.01,2013-04-24 15:32:00,
2013-04-24 11:33:00,34.5,34.5,29.90,NW,316,7.5,7.6,100,0.00,,,0.04,VWS V14.01,2013-04-24 15:33:00,
2013-04-24 11:34:00,34.8,34.8,29.90,NNW,334,7.3,7.5,100,0.00,,,0.04,VWS V14.01,2013-04-24 15:34:00,
2013-04-24 11:35:00,34.3,34.3,29.91,NW,317,7.1,7.3,100,0.00,,,0.04,VWS V14.01,2013-04-24 15:35:00,
2013-04-24 11:36:00,34.2,34.2,29.90,NNW,341,9.9,9.9,100,0.00,,,0.04,VWS V14.01,2013-04-24 15:36:00,
2013-04-24 11:37:00,34.7,34.7,29.94,NNW,330,5.6,8.0,100,0.00,,,0.04,VWS V14.01,2013-04-24 15:37:00,
2013-04-24 11:38:00,34.9,34.9,29.92,NNE,17,4.9,5.6,100,0.00,,,0.04,VWS V14.01,2013-04-24 15:38:00,
2013-04-24 11:39:00,34.9,34.9,29.90,North,349,2.7,4.9,100,0.00,,,0.04,VWS V14.01,2013-04-24 15:39:00,
2013-04-24 11:40:00,34.5,34.5,29.90,NNW,341,5.1,5.6,100,0.00,,,0.04,VWS V14.01,2013-04-24 15:40:00,
2013-04-24 11:41:00,34.2,34.2,29.90,NW,307,8.1,8.1,100,0.00,,,0.04,VWS V14.01,2013-04-24 15:41:00,
2013-04-24 11:42:00,33.9,33.9,29.89,WNW,293,7.1,8.1,100,0.00,,,0.04,VWS V14.01,2013-04-24 15:42:00,
2013-04-24 11:43:00,34.1,34.1,29.89,North,360,8.0,8.0,100,0.00,,,0.04,VWS V14.01,2013-04-24 15:43:00,
2013-04-24 11:44:00,34.2,34.2,29.90,NNW,342,3.7,8.0,100,0.00,,,0.04,VWS V14.01,2013-04-24 15:44:00,
2013-04-24 11:45:00,34.3,34.3,29.89,NNW,327,4.9,4.9,100,0.00,,,0.04,VWS V14.01,2013-04-24 15:45:00,
2013-04-24 11:46:00,34.1,34.1,29.88,NNE,16,5.2,5.2,100,0.00,,,0.04,VWS V14.01,2013-04-24 15:46:00,
2013-04-24 11:47:00,34.3,34.3,29.89,NW,318,6.6,6.6,100,0.00,,,0.04,VWS V14.01,2013-04-24 15:47:00,
2013-04-24 11:48:00,34.9,34.9,29.89,NNW,343,5.1,6.6,100,0.00,,,0.04,VWS V14.01,2013-04-24 15:48:00,
2013-04-24 11:49:00,33.9,33.9,29.89,NW,305,10.4,10.4,100,0.00,,,0.04,VWS V14.01,2013-04-24 15:49:00,
2013-04-24 11:50:00,34.3,34.3,29.88,NNW,331,6.8,10.4,100,0.00,,,0.04,VWS V14.01,2013-04-24 15:50:00,
2013-04-24 11:51:00,34.2,34.2,29.94,North,11,6.1,7.8,100,0.00,,,0.04,VWS V14.01,2013-04-24 15:51:00,
2013-04-24 11:52:00,34.3,34.3,29.91,NE,34,3.0,6.1,100,0.00,,,0.04,VWS V14.01,2013-04-24 15:52:00,
2013-04-24 11:53:00,34.4,34.4,29.89,NNW,344,4.4,8.0,100,0.00,,,0.04,VWS V14.01,2013-04-24 15:53:00,
2013-04-24 11:54:00,34.3,34.3,29.89,North,349,7.3,7.3,100,0.00,,,0.04,VWS V14.01,2013-04-24 15:54:00,
2013-04-24 11:55:00,34.4,34.4,29.89,NNW,338,4.4,7.3,100,0.00,,,0.04,VWS V14.01,2013-04-24 15:55:00,
2013-04-24 11:56:00,34.3,34.3,29.89,NNE,15,6.1,8.8,100,0.00,,,0.04,VWS V14.01,2013-04-24 15:56:00,
2013-04-24 11:57:00,33.9,33.9,29.89,NW,312,9.5,9.5,100,0.00,,,0.04,VWS V14.01,2013-04-24 15:57:00,
2013-04-24 11:58:00,34.2,34.2,29.89,NNW,327,7.3,9.5,100,0.00,,,0.04,VWS V14.01,2013-04-24 15:58:00,
2013-04-24 11:59:00,34.1,34.1,29.89,NNE,12,9.2,9.2,100,0.00,,,0.04,VWS V14.01,2013-04-24 15:59:00,
2013-04-24 12:00:00,34.0,34.0,29.89,NW,323,8.8,9.2,100,0.00,,,0.04,VWS V14.01,2013-04-24 16:00:00,
2013-04-24 12:01:00,34.2,34.2,29.89,NNW,339,7.3,8.8,100,0.00,,,0.04,VWS V14.01,2013-04-24 16:01:00,
2013-04-24 12:02:00,34.3,34.3,29.89,NW,325,7.3,7.3,100,0.00,,,0.04,VWS V14.01,2013-04-24 16:02:00,
2013-04-24 12:03:00,34.0,34.0,29.88,NNW,338,9.2,9.2,100,0.00,,,0.04,VWS V14.01,2013-04-24 16:03:00,
2013-04-24 12:06:00,34.2,34.2,29.89,NW,320,6.4,9.2,100,0.00,,,0.04,VWS V14.01,2013-04-24 16:06:00,
2013-04-24 12:07:00,33.9,33.9,29.90,NNW,336,6.4,9.2,100,0.00,,,0.04,VWS V14.01,2013-04-24 16:07:00,
2013-04-24 12:08:00,33.8,33.8,29.90,NW,324,9.7,9.7,100,0.00,,,0.04,VWS V14.01,2013-04-24 16:08:00,
2013-04-24 12:09:00,34.5,34.5,29.89,NNW,344,4.4,9.7,100,0.00,,,0.04,VWS V14.01,2013-04-24 16:09:00,
2013-04-24 12:11:00,34.4,34.4,29.90,NNW,336,4.5,9.7,100,0.00,,,0.04,VWS V14.01,2013-04-24 16:11:00,
2013-04-24 12:12:00,34.5,34.5,29.90,NW,308,5.4,9.7,100,0.04,,,0.08,VWS V14.01,2013-04-24 16:12:00,
2013-04-24 12:14:00,33.8,33.8,29.89,NNW,338,7.5,9.7,100,0.04,,,0.08,VWS V14.01,2013-04-24 16:14:00,
2013-04-24 12:16:00,34.2,34.2,29.88,North,350,4.4,9.7,100,0.04,,,0.08,VWS V14.01,2013-04-24 16:16:00,
2013-04-24 12:17:00,34.3,34.3,29.89,NNW,329,7.1,9.7,100,0.04,,,0.08,VWS V14.01,2013-04-24 16:17:00,
2013-04-24 12:19:00,34.2,34.2,29.89,North,3,6.3,13.6,100,0.04,,,0.08,VWS V14.01,2013-04-24 16:19:00,
2013-04-24 12:20:00,34.1,34.1,29.90,NW,304,12.8,13.6,100,0.04,,,0.08,VWS V14.01,2013-04-24 16:20:00,
2013-04-24 12:22:00,34.2,34.2,29.89,NW,311,7.8,13.6,100,0.04,,,0.08,VWS V14.01,2013-04-24 16:22:00,
2013-04-24 12:23:00,34.4,34.4,29.90,North,351,5.1,13.6,100,0.04,,,0.08,VWS V14.01,2013-04-24 16:23:00,
2013-04-24 12:24:00,34.4,34.4,29.90,North,351,5.1,13.6,100,0.04,,,0.08,VWS V14.01,2013-04-24 16:24:00,
2013-04-24 12:26:00,35.3,35.3,29.90,NW,309,4.7,13.6,100,0.04,,,0.08,VWS V14.01,2013-04-24 16:26:00,
2013-04-24 12:27:00,34.8,34.8,29.90,NNW,333,8.3,13.6,100,0.04,,,0.08,VWS V14.01,2013-04-24 16:27:00,
2013-04-24 12:30:00,34.0,33.8,29.90,NNW,336,20.1,20.1,99,0.04,,,0.08,VWS V14.01,2013-04-24 16:30:00,
2013-04-24 12:31:00,34.2,34.2,29.91,NW,322,10.9,20.1,100,0.04,,,0.08,VWS V14.01,2013-04-24 16:31:00,
2013-04-24 12:32:00,34.4,34.2,29.91,NNW,334,12.4,20.1,99,0.04,,,0.08,VWS V14.01,2013-04-24 16:32:00,
2013-04-24 12:33:00,34.7,34.4,29.90,North,9,6.8,20.1,99,0.04,,,0.08,VWS V14.01,2013-04-24 16:33:00,
2013-04-24 12:37:00,35.0,34.9,29.90,NW,314,6.1,20.1,99,0.04,,,0.08,VWS V14.01,2013-04-24 16:37:00,
2013-04-24 12:38:00,35.0,34.9,29.90,NW,314,6.1,20.1,99,0.04,,,0.08,VWS V14.01,2013-04-24 16:38:00,
2013-04-24 12:39:00,35.0,34.9,29.90,NW,314,6.1,20.1,99,0.04,,,0.08,VWS V14.01,2013-04-24 16:39:00,
2013-04-24 12:40:00,34.6,34.2,29.90,North,350,10.0,20.1,99,0.04,,,0.08,VWS V14.01,2013-04-24 16:40:00,
2013-04-24 12:41:00,34.9,34.5,29.92,WNW,293,8.1,20.1,99,0.04,,,0.08,VWS V14.01,2013-04-24 16:41:00,
2013-04-24 12:43:00,34.8,34.0,29.92,North,360,9.5,20.1,97,0.04,,,0.08,VWS V14.01,2013-04-24 16:43:00,
2013-04-24 12:45:00,34.2,33.3,29.91,NNW,336,11.9,20.1,97,0.04,,,0.08,VWS V14.01,2013-04-24 16:45:00,
2013-04-24 12:46:00,34.6,33.5,29.90,NNW,341,10.4,20.1,96,0.04,,,0.08,VWS V14.01,2013-04-24 16:46:00,
2013-04-24 12:49:00,34.8,33.8,29.91,NNW,333,9.5,20.1,96,0.04,,,0.08,VWS V14.01,2013-04-24 16:49:00,
2013-04-24 12:50:00,35.1,34.0,29.96,NNW,332,5.4,20.1,96,0.04,,,0.08,VWS V14.01,2013-04-24 16:50:00,
2013-04-24 12:51:00,34.7,33.5,29.91,NNW,346,15.2,20.1,95,0.04,,,0.08,VWS V14.01,2013-04-24 16:51:00,
2013-04-24 12:52:00,34.7,33.5,29.91,NNW,346,15.2,20.1,95,0.04,,,0.08,VWS V14.01,2013-04-24 16:52:00,
2013-04-24 12:55:00,34.8,33.6,29.91,NW,313,13.5,20.1,95,0.04,,,0.08,VWS V14.01,2013-04-24 16:55:00,
2013-04-24 12:56:00,34.8,32.0,29.91,North,9,7.6,20.1,89,0.04,,,0.08,VWS V14.01,2013-04-24 16:56:00,
2013-04-24 12:57:00,35.1,34.1,29.92,NNW,340,8.0,20.1,96,0.04,,,0.08,VWS V14.01,2013-04-24 16:57:00,
2013-04-24 12:59:00,34.8,33.8,29.92,NW,304,15.7,20.1,96,0.04,,,0.08,VWS V14.01,2013-04-24 16:59:00,
2013-04-24 13:01:00,35.1,34.2,29.91,North,351,10.4,20.1,96,0.04,,,0.08,VWS V14.01,2013-04-24 17:01:00,
2013-04-24 13:02:00,35.3,34.5,29.91,NW,320,13.5,20.1,97,0.04,,,0.08,VWS V14.01,2013-04-24 17:02:00,
2013-04-24 13:03:00,35.4,34.5,29.92,NNW,330,8.1,13.5,97,0.04,,,0.08,VWS V14.01,2013-04-24 17:03:00,
2013-04-24 13:04:00,35.3,34.5,29.92,WNW,301,9.9,9.9,97,0.04,,,0.08,VWS V14.01,2013-04-24 17:04:00,
2013-04-24 13:05:00,35.3,34.5,29.92,NW,306,12.4,12.4,97,0.04,,,0.08,VWS V14.01,2013-04-24 17:05:00,
2013-04-24 13:06:00,34.9,33.9,29.92,NW,321,13.5,16.9,96,0.04,,,0.08,VWS V14.01,2013-04-24 17:06:00,
2013-04-24 13:07:00,34.7,33.7,29.96,NNW,338,11.7,13.5,96,0.04,,,0.08,VWS V14.01,2013-04-24 17:07:00,
2013-04-24 13:08:00,34.6,33.7,29.92,NW,305,14.3,14.3,97,0.04,,,0.08,VWS V14.01,2013-04-24 17:08:00,
2013-04-24 13:09:00,35.0,34.1,29.92,NNW,337,9.9,14.3,96,0.04,,,0.08,VWS V14.01,2013-04-24 17:09:00,
2013-04-24 13:10:00,35.0,34.1,29.92,NW,326,10.9,10.9,97,0.04,,,0.08,VWS V14.01,2013-04-24 17:10:00,
2013-04-24 13:11:00,35.0,34.2,29.92,NNW,328,9.2,12.6,97,0.04,,,0.08,VWS V14.01,2013-04-24 17:11:00,
2013-04-24 13:12:00,35.8,35.2,29.92,NW,320,10.4,10.4,98,0.04,,,0.08,VWS V14.01,2013-04-24 17:12:00,
2013-04-24 13:13:00,35.6,35.1,29.93,NW,324,7.8,10.4,98,0.04,,,0.08,VWS V14.01,2013-04-24 17:13:00,
2013-04-24 13:14:00,34.7,34.2,29.92,NW,324,11.2,11.2,98,0.04,,,0.08,VWS V14.01,2013-04-24 17:14:00,
2013-04-24 13:15:00,34.8,34.3,29.92,NW,315,8.1,11.4,98,0.04,,,0.08,VWS V14.01,2013-04-24 17:15:00,
2013-04-24 13:16:00,34.4,33.8,29.92,NNW,327,14.5,14.5,98,0.04,,,0.08,VWS V14.01,2013-04-24 17:16:00,
2013-04-24 13:17:00,34.8,34.2,29.92,NW,317,14.0,14.5,97,0.04,,,0.08,VWS V14.01,2013-04-24 17:17:00,
2013-04-24 13:18:00,34.5,33.9,29.92,NW,321,10.2,14.0,98,0.04,,,0.08,VWS V14.01,2013-04-24 17:18:00,
2013-04-24 13:19:00,34.9,34.3,29.92,NNW,332,7.6,10.2,98,0.04,,,0.08,VWS V14.01,2013-04-24 17:19:00,
2013-04-24 13:20:00,34.5,34.0,29.92,NW,313,9.9,9.9,98,0.04,,,0.08,VWS V14.01,2013-04-24 17:20:00,
2013-04-24 13:21:00,34.7,34.2,29.92,North,349,8.3,11.6,98,0.04,,,0.08,VWS V14.01,2013-04-24 17:21:00,
2013-04-24 13:22:00,35.0,34.6,29.92,NW,311,5.2,8.8,98,0.04,,,0.08,VWS V14.01,2013-04-24 17:22:00,
2013-04-24 13:23:00,34.5,34.2,29.92,NNW,330,10.5,10.5,99,0.04,,,0.08,VWS V14.01,2013-04-24 17:23:00,
2013-04-24 13:24:00,35.5,35.2,29.93,NW,315,11.6,11.6,99,0.04,,,0.08,VWS V14.01,2013-04-24 17:24:00,
2013-04-24 13:25:00,34.6,34.3,29.93,NW,315,13.8,13.8,99,0.04,,,0.08,VWS V14.01,2013-04-24 17:25:00,
2013-04-24 13:26:00,34.4,34.0,29.92,NW,315,15.7,15.7,98,0.04,,,0.08,VWS V14.01,2013-04-24 17:26:00,
2013-04-24 13:27:00,34.4,34.0,29.93,NW,316,14.1,14.1,98,0.04,,,0.08,VWS V14.01,2013-04-24 17:27:00,
2013-04-24 13:28:00,35.2,34.8,29.93,NNW,338,8.0,15.3,98,0.04,,,0.08,VWS V14.01,2013-04-24 17:28:00,
2013-04-24 13:29:00,34.6,34.2,29.97,NW,318,11.2,11.2,98,0.04,,,0.08,VWS V14.01,2013-04-24 17:29:00,
2013-04-24 13:30:00,35.4,35.2,29.95,NW,305,12.6,12.6,99,0.04,,,0.08,VWS V14.01,2013-04-24 17:30:00,
2013-04-24 13:31:00,34.5,34.2,29.93,NNW,336,12.4,12.6,99,0.04,,,0.08,VWS V14.01,2013-04-24 17:31:00,
2013-04-24 13:32:00,34.6,34.3,29.93,NW,323,9.9,12.4,99,0.04,,,0.08,VWS V14.01,2013-04-24 17:32:00,
2013-04-24 13:33:00,34.4,34.2,29.93,NW,308,10.5,10.5,99,0.04,,,0.08,VWS V14.01,2013-04-24 17:33:00,
2013-04-24 13:34:00,35.2,35.0,29.93,NW,315,15.0,15.0,99,0.04,,,0.08,VWS V14.01,2013-04-24 17:34:00,
2013-04-24 13:35:00,34.7,34.6,29.93,NW,318,11.9,15.0,99,0.04,,,0.08,VWS V14.01,2013-04-24 17:35:00,
2013-04-24 13:36:00,35.4,35.2,29.93,NNW,331,10.2,13.6,99,0.04,,,0.08,VWS V14.01,2013-04-24 17:36:00,
2013-04-24 13:37:00,35.6,35.4,29.93,NW,306,10.9,10.9,99,0.04,,,0.08,VWS V14.01,2013-04-24 17:37:00,
2013-04-24 13:38:00,35.1,35.0,29.93,NW,317,12.1,12.1,99,0.04,,,0.08,VWS V14.01,2013-04-24 17:38:00,
2013-04-24 13:39:00,34.9,34.7,29.93,NW,312,10.4,10.4,99,0.04,,,0.08,VWS V14.01,2013-04-24 17:39:00,
2013-04-24 13:40:00,35.1,34.8,29.92,NW,312,9.7,10.4,99,0.04,,,0.08,VWS V14.01,2013-04-24 17:40:00,
2013-04-24 13:41:00,35.0,34.8,29.93,NNW,345,8.0,9.7,99,0.04,,,0.08,VWS V14.01,2013-04-24 17:41:00,
2013-04-24 13:42:00,35.4,35.2,29.93,NW,316,10.0,10.0,99,0.04,,,0.08,VWS V14.01,2013-04-24 17:42:00,
2013-04-24 13:43:00,35.2,33.1,29.93,WNW,295,11.9,12.4,92,0.04,,,0.08,VWS V14.01,2013-04-24 17:43:00,
2013-04-24 13:44:00,35.5,35.4,29.93,NW,325,5.1,6.4,99,0.04,,,0.08,VWS V14.01,2013-04-24 17:44:00,
2013-04-24 13:45:00,35.0,34.8,29.93,WNW,303,8.1,8.1,99,0.04,,,0.08,VWS V14.01,2013-04-24 17:45:00,
2013-04-24 13:46:00,34.5,34.3,29.93,NNW,335,7.6,8.1,99,0.04,,,0.08,VWS V14.01,2013-04-24 17:46:00,
2013-04-24 13:47:00,34.6,34.4,29.92,NNW,327,8.7,10.7,99,0.04,,,0.08,VWS V14.01,2013-04-24 17:47:00,
2013-04-24 13:48:00,34.3,34.0,29.92,NW,320,9.7,10.9,99,0.04,,,0.08,VWS V14.01,2013-04-24 17:48:00,
2013-04-24 13:49:00,34.6,34.3,29.92,NW,320,5.6,9.7,99,0.04,,,0.08,VWS V14.01,2013-04-24 17:49:00,
2013-04-24 13:50:00,34.7,34.5,29.97,NNW,330,11.1,11.2,99,0.04,,,0.08,VWS V14.01,2013-04-24 17:50:00,
2013-04-24 13:51:00,34.9,34.8,29.93,NW,316,9.0,11.1,99,0.04,,,0.08,VWS V14.01,2013-04-24 17:51:00,
2013-04-24 13:52:00,34.5,34.4,29.93,NNW,330,5.6,9.2,99,0.04,,,0.08,VWS V14.01,2013-04-24 17:52:00,
2013-04-24 13:53:00,35.0,34.8,29.97,NNW,329,4.4,5.6,99,0.04,,,0.08,VWS V14.01,2013-04-24 17:53:00,
2013-04-24 13:54:00,35.0,35.0,29.92,NW,326,3.9,4.4,100,0.04,,,0.08,VWS V14.01,2013-04-24 17:54:00,
2013-04-24 13:55:00,34.9,34.8,29.93,NNW,328,6.9,6.9,100,0.04,,,0.08,VWS V14.01,2013-04-24 17:55:00,
2013-04-24 13:56:00,34.9,34.8,29.93,NW,322,6.1,6.1,99,0.04,,,0.08,VWS V14.01,2013-04-24 17:56:00,
2013-04-24 13:57:00,34.5,34.4,29.92,NNW,338,11.6,11.6,99,0.04,,,0.08,VWS V14.01,2013-04-24 17:57:00,
2013-04-24 13:58:00,34.5,34.3,29.92,NW,323,6.9,11.6,99,0.04,,,0.08,VWS V14.01,2013-04-24 17:58:00,
2013-04-24 13:59:00,34.8,34.4,29.92,NW,311,11.9,11.9,99,0.04,,,0.08,VWS V14.01,2013-04-24 17:59:00,
2013-04-24 14:00:00,35.7,35.3,29.93,North,352,7.1,12.6,98,0.04,,,0.08,VWS V14.01,2013-04-24 18:00:00,
2013-04-24 14:02:00,35.3,34.8,29.93,WNW,295,8.5,8.5,98,0.00,,,0.08,VWS V14.01,2013-04-24 18:02:00,
2013-04-24 14:03:00,35.5,34.9,29.93,NNW,335,8.8,9.2,98,0.00,,,0.08,VWS V14.01,2013-04-24 18:03:00,
2013-04-24 14:04:00,36.4,35.8,29.93,WNW,288,9.0,9.2,98,0.00,,,0.08,VWS V14.01,2013-04-24 18:04:00,
2013-04-24 14:07:00,35.5,34.5,29.93,NW,306,8.1,11.2,96,0.00,,,0.08,VWS V14.01,2013-04-24 18:07:00,
2013-04-24 14:08:00,35.5,34.5,29.93,NW,306,8.1,8.1,96,0.00,,,0.08,VWS V14.01,2013-04-24 18:08:00,
2013-04-24 14:10:00,35.8,34.7,29.93,NNW,331,6.4,10.4,95,0.00,,,0.08,VWS V14.01,2013-04-24 18:10:00,
2013-04-24 14:11:00,35.8,34.6,29.93,WNW,301,9.7,9.7,95,0.00,,,0.08,VWS V14.01,2013-04-24 18:11:00,
2013-04-24 14:13:00,35.6,33.9,29.92,NW,315,12.3,12.6,93,0.00,,,0.08,VWS V14.01,2013-04-24 18:13:00,
2013-04-24 14:14:00,36.4,32.6,29.93,NW,316,11.4,11.4,86,0.00,,,0.08,VWS V14.01,2013-04-24 18:14:00,
2013-04-24 14:17:00,37.2,35.4,29.93,NW,324,10.9,12.9,93,0.00,,,0.08,VWS V14.01,2013-04-24 18:17:00,
2013-04-24 14:18:00,35.4,33.0,29.94,NW,317,14.8,14.8,91,0.00,,,0.08,VWS V14.01,2013-04-24 18:18:00,
2013-04-24 14:20:00,36.4,33.9,29.94,NW,323,17.7,17.7,91,0.00,,,0.08,VWS V14.01,2013-04-24 18:20:00,
2013-04-24 14:22:00,35.4,33.2,29.94,NW,318,17.6,17.6,91,0.00,,,0.08,VWS V14.01,2013-04-24 18:22:00,
2013-04-24 14:23:00,35.4,32.9,29.94,NNW,328,17.6,17.6,91,0.00,,,0.08,VWS V14.01,2013-04-24 18:23:00,
2013-04-24 14:25:00,35.0,32.8,29.95,NW,310,7.1,12.9,92,0.00,,,0.08,VWS V14.01,2013-04-24 18:25:00,
2013-04-24 14:26:00,36.1,34.3,29.96,NW,320,6.1,7.1,93,0.00,,,0.08,VWS V14.01,2013-04-24 18:26:00,
2013-04-24 14:27:00,36.0,34.5,29.95,NW,308,9.0,14.1,94,0.00,,,0.08,VWS V14.01,2013-04-24 18:27:00,
2013-04-24 14:30:00,35.5,33.7,29.95,NW,319,12.1,12.1,93,0.00,,,0.08,VWS V14.01,2013-04-24 18:30:00,
2013-04-24 14:31:00,35.9,34.6,29.95,NW,322,6.3,11.2,95,0.00,,,0.08,VWS V14.01,2013-04-24 18:31:00,
2013-04-24 14:32:00,36.2,34.9,29.94,NW,317,12.1,13.1,95,0.00,,,0.08,VWS V14.01,2013-04-24 18:32:00,
2013-04-24 14:33:00,36.2,34.9,29.94,NW,317,12.1,13.1,95,0.00,,,0.08,VWS V14.01,2013-04-24 18:33:00,
2013-04-24 14:35:00,36.3,35.3,29.95,NW,311,12.1,12.1,96,0.00,,,0.08,VWS V14.01,2013-04-24 18:35:00,
2013-04-24 14:36:00,36.2,35.2,29.95,NNW,329,12.4,12.4,96,0.00,,,0.08,VWS V14.01,2013-04-24 18:36:00,
2013-04-24 14:37:00,36.0,34.9,29.95,NW,309,13.8,13.8,96,0.00,,,0.08,VWS V14.01,2013-04-24 18:37:00,
2013-04-24 14:38:00,36.1,34.8,29.96,NNW,327,16.2,16.2,95,0.00,,,0.08,VWS V14.01,2013-04-24 18:38:00,
2013-04-24 14:41:00,35.8,34.1,29.96,NW,312,13.8,15.3,93,0.04,,,0.12,VWS V14.01,2013-04-24 18:41:00,
2013-04-24 14:43:00,36.0,34.7,29.96,NW,310,13.6,13.8,95,0.04,,,0.12,VWS V14.01,2013-04-24 18:43:00,
2013-04-24 14:44:00,36.3,35.0,29.96,NNW,328,12.6,12.8,95,0.04,,,0.12,VWS V14.01,2013-04-24 18:44:00,
2013-04-24 14:47:00,35.4,34.2,30.01,NW,308,12.6,12.6,96,0.04,,,0.12,VWS V14.01,2013-04-24 18:47:00,
2013-04-24 14:48:00,36.1,35.2,29.96,NNW,332,15.7,15.7,96,0.04,,,0.12,VWS V14.01,2013-04-24 18:48:00,
2013-04-24 14:49:00,35.9,33.8,29.96,NW,313,14.0,15.7,92,0.04,,,0.12,VWS V14.01,2013-04-24 18:49:00,
2013-04-24 14:52:00,35.7,34.4,29.96,NW,311,17.9,17.9,95,0.04,,,0.12,VWS V14.01,2013-04-24 18:52:00,
2013-04-24 14:54:00,36.0,34.5,29.96,NW,310,17.6,17.6,94,0.04,,,0.12,VWS V14.01,2013-04-24 18:54:00,
2013-04-24 14:56:00,35.6,34.3,29.96,NW,324,14.8,16.0,95,0.04,,,0.12,VWS V14.01,2013-04-24 18:56:00,
2013-04-24 14:57:00,36.1,35.1,29.96,WNW,298,16.4,16.4,96,0.04,,,0.12,VWS V14.01,2013-04-24 18:57:00,
2013-04-24 15:01:00,36.9,35.8,29.96,NW,307,11.9,12.6,96,0.04,,,0.12,VWS V14.01,2013-04-24 19:01:00,
2013-04-24 15:02:00,37.2,36.3,29.96,NW,320,13.6,13.6,97,0.04,,,0.12,VWS V14.01,2013-04-24 19:02:00,
2013-04-24 15:03:00,37.0,35.9,29.97,NNW,335,15.3,15.3,96,0.04,,,0.12,VWS V14.01,2013-04-24 19:03:00,
2013-04-24 15:04:00,36.9,35.7,29.97,WNW,302,14.6,15.3,95,0.04,,,0.12,VWS V14.01,2013-04-24 19:04:00,
2013-04-24 15:05:00,35.4,34.8,29.93,NW,311,7.5,9.2,98,0.00,,,0.08,VWS V14.01,2013-04-24 19:05:00,
2013-04-24 15:06:00,35.3,34.7,29.93,NW,319,9.5,9.5,98,0.00,,,0.08,VWS V14.01,2013-04-24 19:06:00,
2013-04-24 15:07:00,37.3,36.1,29.96,NW,318,11.2,18.8,95,0.04,,,0.12,VWS V14.01,2013-04-24 19:07:00,
2013-04-24 15:08:00,37.1,35.9,29.97,NW,321,16.7,18.8,95,0.04,,,0.12,VWS V14.01,2013-04-24 19:08:00,
2013-04-24 15:09:00,36.9,36.0,29.94,NW,325,8.1,9.9,96,0.00,,,0.08,VWS V14.01,2013-04-24 19:09:00,
2013-04-24 15:10:00,37.6,36.3,29.97,West,281,13.8,18.8,95,0.04,,,0.12,VWS V14.01,2013-04-24 19:10:00,
2013-04-24 15:11:00,37.3,36.3,29.96,WNW,297,14.8,18.8,96,0.04,,,0.12,VWS V14.01,2013-04-24 19:11:00,
2013-04-24 15:12:00,38.0,36.7,29.96,WNW,282,14.0,18.8,95,0.04,,,0.12,VWS V14.01,2013-04-24 19:12:00,
2013-04-24 15:13:00,35.6,34.1,29.92,NNW,347,12.6,12.6,94,0.00,,,0.08,VWS V14.01,2013-04-24 19:13:00,
2013-04-24 15:14:00,36.1,34.4,29.93,WNW,301,9.5,12.6,93,0.00,,,0.08,VWS V14.01,2013-04-24 19:14:00,
2013-04-24 15:15:00,36.7,34.7,30.00,WNW,293,15.2,18.8,92,0.04,,,0.12,VWS V14.01,2013-04-24 19:15:00,
2013-04-24 15:16:00,36.8,34.3,29.97,NW,304,14.1,18.8,91,0.04,,,0.12,VWS V14.01,2013-04-24 19:16:00,
2013-04-24 15:17:00,36.1,34.1,29.97,WNW,300,12.8,18.8,92,0.04,,,0.12,VWS V14.01,2013-04-24 19:17:00,
2013-04-24 15:18:00,36.9,34.9,29.96,WNW,295,11.6,18.8,92,0.04,,,0.12,VWS V14.01,2013-04-24 19:18:00,
2013-04-24 15:19:00,36.8,34.7,29.97,WNW,283,12.3,18.8,92,0.04,,,0.12,VWS V14.01,2013-04-24 19:19:00,
2013-04-24 15:20:00,36.4,34.4,29.97,NW,307,14.5,18.8,92,0.04,,,0.12,VWS V14.01,2013-04-24 19:20:00,
2013-04-24 15:21:00,37.0,35.1,29.96,WNW,300,12.8,18.8,93,0.04,,,0.12,VWS V14.01,2013-04-24 19:21:00,
2013-04-24 15:22:00,35.7,33.5,29.94,NNW,343,12.3,13.4,91,0.00,,,0.08,VWS V14.01,2013-04-24 19:22:00,
2013-04-24 15:23:00,35.8,32.5,29.96,WNW,292,17.6,18.8,88,0.04,,,0.12,VWS V14.01,2013-04-24 19:23:00,
2013-04-24 15:24:00,35.4,33.0,29.94,NNW,341,12.9,17.6,91,0.00,,,0.08,VWS V14.01,2013-04-24 19:24:00,
2013-04-24 15:25:00,35.0,32.8,29.95,NW,310,7.1,12.9,92,0.00,,,0.08,VWS V14.01,2013-04-24 19:25:00,
2013-04-24 15:26:00,36.9,33.9,29.97,West,279,16.5,18.8,89,0.04,,,0.12,VWS V14.01,2013-04-24 19:26:00,
2013-04-24 15:27:00,37.5,34.6,29.97,NW,306,14.8,18.8,89,0.04,,,0.12,VWS V14.01,2013-04-24 19:27:00,
2013-04-24 15:28:00,35.8,34.2,29.95,NW,309,12.4,12.4,94,0.00,,,0.08,VWS V14.01,2013-04-24 19:28:00,
2013-04-24 15:29:00,37.5,35.2,29.97,NW,310,10.5,18.8,91,0.04,,,0.12,VWS V14.01,2013-04-24 19:29:00,
2013-04-24 15:30:00,34.7,33.0,29.95,NW,317,11.9,14.0,93,0.00,,,0.08,VWS V14.01,2013-04-24 19:30:00,
2013-04-24 15:31:00,35.6,34.1,29.95,West,279,11.2,12.1,94,0.00,,,0.08,VWS V14.01,2013-04-24 19:31:00,
2013-04-24 15:32:00,35.8,34.5,29.95,NW,304,10.0,11.2,95,0.00,,,0.08,VWS V14.01,2013-04-24 19:32:00,
2013-04-24 15:33:00,36.2,34.9,29.94,NW,317,12.1,13.1,95,0.00,,,0.08,VWS V14.01,2013-04-24 19:33:00,
2013-04-24 15:34:00,35.6,34.4,29.94,NW,315,13.1,13.1,95,0.00,,,0.08,VWS V14.01,2013-04-24 19:34:00,
2013-04-24 15:35:00,36.6,35.5,29.95,NW,319,10.4,13.1,96,0.00,,,0.08,VWS V14.01,2013-04-24 19:35:00,
2013-04-24 15:36:00,36.3,35.2,29.94,NW,304,9.9,12.1,96,0.00,,,0.08,VWS V14.01,2013-04-24 19:36:00,
2013-04-24 15:37:00,36.2,35.2,29.95,NNW,329,12.4,12.4,96,0.00,,,0.08,VWS V14.01,2013-04-24 19:37:00,
2013-04-24 15:38:00,36.2,35.1,29.96,NW,306,15.0,15.0,96,0.00,,,0.08,VWS V14.01,2013-04-24 19:38:00,
2013-04-24 15:39:00,35.9,34.4,29.95,NW,326,16.2,16.2,94,0.00,,,0.08,VWS V14.01,2013-04-24 19:39:00,
2013-04-24 15:40:00,36.5,35.1,29.95,NW,319,11.7,16.2,95,0.00,,,0.08,VWS V14.01,2013-04-24 19:40:00,
2013-04-24 15:41:00,35.6,34.2,29.94,NW,305,15.0,15.0,94,0.00,,,0.08,VWS V14.01,2013-04-24 19:41:00,
2013-04-24 15:42:00,35.8,34.1,29.96,NW,312,13.8,15.3,93,0.04,,,0.12,VWS V14.01,2013-04-24 19:42:00,
2013-04-24 15:43:00,36.0,34.7,29.96,NW,310,13.6,13.8,95,0.04,,,0.12,VWS V14.01,2013-04-24 19:43:00,
2013-04-24 15:44:00,36.1,34.8,29.96,NNW,333,12.8,13.6,95,0.04,,,0.12,VWS V14.01,2013-04-24 19:44:00,
2013-04-24 15:45:00,35.5,34.0,29.96,NW,312,10.7,12.8,94,0.04,,,0.12,VWS V14.01,2013-04-24 19:45:00,
2013-04-24 15:46:00,35.6,34.5,29.96,NNW,338,11.2,11.2,96,0.04,,,0.12,VWS V14.01,2013-04-24 19:46:00,
2013-04-24 15:47:00,35.8,34.7,29.97,NW,305,12.9,12.9,96,0.04,,,0.12,VWS V14.01,2013-04-24 19:47:00,
2013-04-24 15:48:00,35.8,34.7,29.97,NW,305,12.9,12.9,96,0.04,,,0.12,VWS V14.01,2013-04-24 19:48:00,
2013-04-24 15:49:00,35.9,33.8,29.96,NW,313,14.0,15.7,92,0.04,,,0.12,VWS V14.01,2013-04-24 19:49:00,
2013-04-24 15:50:00,36.6,35.5,29.96,NW,317,11.6,14.0,96,0.04,,,0.12,VWS V14.01,2013-04-24 19:50:00,
2013-04-24 15:51:00,36.3,35.3,29.97,WNW,296,14.3,14.3,96,0.04,,,0.12,VWS V14.01,2013-04-24 19:51:00,
2013-04-24 15:52:00,35.8,34.5,29.96,NNW,343,17.4,17.6,95,0.04,,,0.12,VWS V14.01,2013-04-24 19:52:00,
2013-04-24 15:53:00,35.8,34.3,29.96,WNW,300,14.6,17.9,94,0.04,,,0.12,VWS V14.01,2013-04-24 19:53:00,
2013-04-24 15:54:00,35.8,34.4,29.96,NW,310,15.8,15.8,94,0.04,,,0.12,VWS V14.01,2013-04-24 19:54:00,
2013-04-24 15:55:00,36.7,35.3,29.96,NW,311,14.3,17.6,95,0.04,,,0.12,VWS V14.01,2013-04-24 19:55:00,
2013-04-24 15:56:00,35.6,34.1,29.96,NW,315,16.0,16.9,94,0.04,,,0.12,VWS V14.01,2013-04-24 19:56:00,
2013-04-24 15:57:00,36.3,35.0,29.97,NW,325,14.3,16.0,95,0.04,,,0.12,VWS V14.01,2013-04-24 19:57:00,
2013-04-24 15:58:00,36.1,35.1,29.96,WNW,298,16.4,16.4,96,0.04,,,0.12,VWS V14.01,2013-04-24 19:58:00,
2013-04-24 15:59:00,36.6,35.6,29.96,NNW,337,12.4,17.2,96,0.04,,,0.12,VWS V14.01,2013-04-24 19:59:00,
2013-04-24 16:00:00,37.2,36.2,29.97,NW,323,12.6,12.6,96,0.04,,,0.12,VWS V14.01,2013-04-24 20:00:00,